| time (UTC) | temp C | wind direction | speed KPH | gust KPH | rain 1hr cm | rain 24hr cm | rain mn cm | humidity % | barometer mb |
| 20260508151544 | 10 | 0 | 1.6 | 14.5 | 0.00 | 0.00 | 0.00 | 42 | 1024.2 |
| 20260508150048 | 10 | 0 | 0.0 | 9.7 | 0.00 | 0.00 | 0.00 | 43 | 1024.0 |
| 20260508144548 | 11 | 0 | 0.0 | 1.6 | 0.00 | 0.00 | 0.00 | 40 | 1024.1 |
| 20260508143050 | 10 | 0 | 0.0 | 8.0 | 0.00 | 0.00 | 0.00 | 43 | 1024.0 |
| 20260508141545 | 10 | 267 | 0.0 | 0.0 | 0.00 | 0.00 | 0.00 | 43 | 1024.3 |
| 20260508140041 | 10 | 0 | 0.0 | 0.0 | 0.00 | 0.00 | 0.00 | 50 | 1024.2 |
| 20260508134540 | 7 | 0 | 0.0 | 0.0 | 0.00 | 0.00 | 0.00 | 55 | 1024.0 |
| 20260508133101 | 4 | 0 | 0.0 | 0.0 | 0.00 | 0.00 | 0.00 | 66 | 1023.9 |
| 20260508131548 | 2 | 0 | 0.0 | 0.0 | 0.00 | 0.00 | 0.00 | 75 | 1023.8 |
| 20260508130047 | 0 | 0 | 0.0 | 0.0 | 0.00 | 0.00 | 0.00 | 78 | 1023.6 |
| 20260508124545 | 0 | 0 | 0.0 | 0.0 | 0.00 | 0.00 | 0.00 | 79 | 1023.4 |
| 20260508123055 | 0 | 0 | 0.0 | 0.0 | 0.00 | 0.00 | 0.00 | 78 | 1023.3 |
| 20260508121552 | 0 | 0 | 0.0 | 0.0 | 0.00 | 0.00 | 0.00 | 77 | 1023.0 |
| 20260508120050 | 0 | 0 | 0.0 | 0.0 | 0.00 | 0.00 | 0.00 | 78 | 1023.0 |
| 20260508114545 | 0 | 0 | 0.0 | 0.0 | 0.00 | 0.00 | 0.00 | 78 | 1023.0 |
| 20260508113049 | 0 | 0 | 0.0 | 0.0 | 0.00 | 0.00 | 0.00 | 79 | 1022.9 |
| 20260508111553 | 0 | 0 | 0.0 | 0.0 | 0.00 | 0.00 | 0.00 | 77 | 1023.0 |
| 20260508110051 | 0 | 0 | 0.0 | 0.0 | 0.00 | 0.00 | 0.00 | 76 | 1023.1 |
| 20260508104546 | 0 | 0 | 0.0 | 0.0 | 0.00 | 0.00 | 0.00 | 75 | 1023.1 |
| 20260508103046 | 0 | 0 | 0.0 | 0.0 | 0.00 | 0.00 | 0.00 | 75 | 1023.0 |
| 20260508101546 | 1 | 0 | 0.0 | 0.0 | 0.00 | 0.00 | 0.00 | 74 | 1022.9 |
| 20260508100048 | 1 | 0 | 0.0 | 0.0 | 0.00 | 0.00 | 0.00 | 72 | 1023.1 |
| 20260508094554 | 1 | 0 | 0.0 | 0.0 | 0.00 | 0.00 | 0.00 | 70 | 1023.1 |
| 20260508093050 | 2 | 0 | 0.0 | 0.0 | 0.00 | 0.00 | 0.00 | 69 | 1023.1 |
| 20260508091548 | 2 | 0 | 0.0 | 0.0 | 0.00 | 0.00 | 0.00 | 66 | 1023.1 |
| 20260508090044 | 3 | 0 | 0.0 | 0.0 | 0.00 | 0.00 | 0.00 | 64 | 1023.4 |
| 20260508084549 | 3 | 0 | 0.0 | 0.0 | 0.00 | 0.00 | 0.00 | 62 | 1023.4 |
| 20260508083047 | 4 | 0 | 0.0 | 0.0 | 0.00 | 0.00 | 0.00 | 63 | 1023.5 |
| 20260508081603 | 4 | 0 | 0.0 | 1.6 | 0.00 | 0.00 | 0.00 | 60 | 1023.6 |
| 20260508080044 | 5 | 0 | 0.0 | 3.2 | 0.00 | 0.00 | 0.00 | 58 | 1023.7 |
| 20260508074542 | 5 | 360 | 0.0 | 3.2 | 0.00 | 0.00 | 0.00 | 58 | 1023.6 |
| 20260508073041 | 4 | 223 | 0.0 | 4.8 | 0.00 | 0.00 | 0.00 | 59 | 1023.6 |
| 20260508071549 | 4 | 0 | 0.0 | 3.2 | 0.00 | 0.00 | 0.00 | 59 | 1023.6 |
| 20260508070053 | 3 | 0 | 0.0 | 3.2 | 0.00 | 0.00 | 0.00 | 62 | 1023.6 |
| 20260508064544 | 3 | 0 | 0.0 | 4.8 | 0.00 | 0.00 | 0.00 | 65 | 1023.4 |
| 20260508063046 | 3 | 0 | 1.6 | 6.4 | 0.00 | 0.00 | 0.00 | 64 | 1023.4 |
| 20260508061548 | 4 | 0 | 1.6 | 4.8 | 0.00 | 0.00 | 0.00 | 63 | 1023.5 |
| 20260508060047 | 4 | 0 | 0.0 | 6.4 | 0.00 | 0.00 | 0.00 | 60 | 1023.4 |
| 20260508054547 | 3 | 206 | 1.6 | 6.4 | 0.00 | 0.00 | 0.00 | 62 | 1023.5 |
| 20260508053052 | 3 | 0 | 0.0 | 6.4 | 0.00 | 0.00 | 0.00 | 64 | 1023.6 |
| 20260508051546 | 2 | 200 | 0.0 | 8.0 | 0.00 | 0.00 | 0.00 | 68 | 1023.6 |
| 20260508050047 | 2 | 0 | 0.0 | 0.0 | 0.00 | 0.00 | 0.00 | 69 | 1023.9 |
| 20260508044602 | 3 | 0 | 0.0 | 0.0 | 0.00 | 0.00 | 0.00 | 67 | 1024.2 |
| 20260508043048 | 3 | 0 | 0.0 | 0.0 | 0.00 | 0.00 | 0.00 | 67 | 1024.3 |
| 20260508041545 | 3 | 0 | 0.0 | 0.0 | 0.00 | 0.00 | 0.00 | 68 | 1024.3 |
| 20260508040043 | 3 | 0 | 0.0 | 0.0 | 0.00 | 0.00 | 0.00 | 66 | 1024.3 |
| 20260508034554 | 3 | 0 | 0.0 | 0.0 | 0.00 | 0.00 | 0.00 | 62 | 1024.2 |
| 20260508033052 | 4 | 0 | 0.0 | 0.0 | 0.00 | 0.00 | 0.00 | 60 | 1024.4 |
| 20260508031546 | 5 | 0 | 0.0 | 0.0 | 0.00 | 0.00 | 0.00 | 59 | 1024.2 |
| 20260508030054 | 5 | 0 | 0.0 | 0.0 | 0.00 | 0.00 | 0.00 | 59 | 1024.0 |
| 20260508024547 | 5 | 0 | 0.0 | 0.0 | 0.00 | 0.00 | 0.00 | 59 | 1023.9 |
| 20260508023048 | 6 | 0 | 0.0 | 0.0 | 0.00 | 0.00 | 0.00 | 56 | 1023.8 |
| 20260508021547 | 7 | 0 | 0.0 | 0.0 | 0.00 | 0.00 | 0.00 | 55 | 1023.7 |
| 20260508020050 | 7 | 0 | 0.0 | 0.0 | 0.00 | 0.00 | 0.00 | 47 | 1023.7 |
| 20260508014548 | 8 | 0 | 0.0 | 4.8 | 0.00 | 0.00 | 0.00 | 47 | 1023.7 |
| 20260508013048 | 8 | 0 | 0.0 | 12.9 | 0.00 | 0.00 | 0.00 | 46 | 1023.6 |
| 20260508011550 | 9 | 0 | 0.0 | 8.0 | 0.00 | 0.00 | 0.00 | 44 | 1023.6 |
| 20260508010048 | 10 | 292 | 0.0 | 6.4 | 0.00 | 0.00 | 0.00 | 44 | 1023.6 |
| 20260508004552 | 10 | 0 | 0.0 | 6.4 | 0.00 | 0.00 | 0.00 | 42 | 1023.6 |
| 20260508003050 | 10 | 0 | 0.0 | 6.4 | 0.00 | 0.00 | 0.00 | 42 | 1023.7 |
| 20260508001547 | 11 | 0 | 0.0 | 14.5 | 0.00 | 0.00 | 0.00 | 40 | 1023.6 |
| 20260508000047 | 11 | 0 | 0.0 | 8.0 | 0.00 | 0.00 | 0.00 | 41 | 1023.6 |
| 20260507234552 | 11 | 0 | 0.0 | 8.0 | 0.00 | 0.00 | 0.00 | 41 | 1023.7 |
| 20260507233040 | 11 | 306 | 1.6 | 6.4 | 0.00 | 0.00 | 0.00 | 38 | 1023.8 |
| 20260507231548 | 11 | 291 | 1.6 | 16.1 | 0.00 | 0.00 | 0.00 | 40 | 1023.9 |
| 20260507230055 | 11 | 225 | 3.2 | 14.5 | 0.00 | 0.00 | 0.00 | 40 | 1023.8 |
| 20260507224550 | 11 | 0 | 0.0 | 11.3 | 0.00 | 0.00 | 0.00 | 40 | 1023.9 |
| 20260507223055 | 11 | 0 | 1.6 | 11.3 | 0.00 | 0.00 | 0.00 | 43 | 1023.8 |
| 20260507221545 | 11 | 0 | 3.2 | 14.5 | 0.00 | 0.00 | 0.00 | 39 | 1023.8 |
| 20260507220040 | 12 | 352 | 1.6 | 12.9 | 0.00 | 0.00 | 0.00 | 39 | 1023.9 |
| 20260507214546 | 11 | 330 | 1.6 | 9.7 | 0.00 | 0.00 | 0.00 | 39 | 1024.0 |
| 20260507213046 | 10 | 13 | 1.6 | 11.3 | 0.00 | 0.00 | 0.00 | 38 | 1023.9 |
| 20260507211551 | 9 | 51 | 1.6 | 6.4 | 0.00 | 0.00 | 0.00 | 48 | 1024.0 |
| 20260507210047 | 8 | 360 | 1.6 | 6.4 | 0.00 | 0.00 | 0.00 | 42 | 1023.9 |
| 20260507204544 | 8 | 360 | 3.2 | 17.7 | 0.00 | 0.00 | 0.00 | 41 | 1024.5 |
| 20260507203057 | 10 | 360 | 0.0 | 6.4 | 0.00 | 0.00 | 0.00 | 46 | 1024.5 |
| 20260507201548 | 10 | 5 | 1.6 | 11.3 | 0.00 | 0.00 | 0.00 | 41 | 1024.6 |
| 20260507200051 | 9 | 25 | 1.6 | 14.5 | 0.00 | 0.00 | 0.00 | 45 | 1024.7 |
| 20260507194547 | 8 | 0 | 1.6 | 9.7 | 0.00 | 0.00 | 0.00 | 51 | 1024.5 |
| 20260507193050 | 8 | 0 | 0.0 | 6.4 | 0.00 | 0.00 | 0.00 | 50 | 1024.7 |
| 20260507191543 | 9 | 24 | 1.6 | 11.3 | 0.00 | 0.00 | 0.00 | 46 | 1024.8 |
| 20260507190048 | 10 | 166 | 3.2 | 8.0 | 0.00 | 0.00 | 0.00 | 43 | 1024.9 |
| 20260507184547 | 8 | 257 | 1.6 | 6.4 | 0.00 | 0.00 | 0.00 | 55 | 1025.1 |
| 20260507183051 | 8 | 337 | 1.6 | 8.0 | 0.00 | 0.00 | 0.00 | 47 | 1025.1 |
| 20260507181547 | 6 | 0 | 0.0 | 4.8 | 0.00 | 0.00 | 0.00 | 52 | 1025.0 |
| 20260507180046 | 7 | 0 | 0.0 | 12.9 | 0.00 | 0.00 | 0.00 | 49 | 1025.1 |
| 20260507174548 | 7 | 360 | 1.6 | 6.4 | 0.00 | 0.00 | 0.00 | 52 | 1025.0 |
| 20260507173058 | 8 | 0 | 0.0 | 12.9 | 0.00 | 0.00 | 0.00 | 48 | 1025.3 |
| 20260507171606 | 7 | 0 | 0.0 | 4.8 | 0.00 | 0.00 | 0.00 | 54 | 1024.9 |
| 20260507170055 | 6 | 331 | 1.6 | 8.0 | 0.00 | 0.00 | 0.00 | 53 | 1025.2 |
| 20260507164602 | 7 | 0 | 0.0 | 4.8 | 0.00 | 0.00 | 0.00 | 48 | 1024.9 |
| 20260507163042 | 5 | 0 | 0.0 | 4.8 | 0.00 | 0.00 | 0.00 | 57 | 1025.1 |
| 20260507161545 | 6 | 0 | 1.6 | 6.4 | 0.00 | 0.00 | 0.00 | 52 | 1025.2 |
| 20260507160048 | 7 | 51 | 0.0 | 4.8 | 0.00 | 0.00 | 0.00 | 44 | 1025.1 |
| 20260507154552 | 8 | 0 | 0.0 | 1.6 | 0.00 | 0.00 | 0.00 | 43 | 1025.0 |
| 20260507153049 | 8 | 0 | 0.0 | 1.6 | 0.00 | 0.00 | 0.00 | 46 | 1025.3 |